Weather History for Glasgow, MT

Change the Weather History Date:

Saturday, March 30, 2013

  Actual Average Record
Temperature  
Mean Temperature 41 °F 38 °F  
Max Temperature 54 °F 50 °F 75 °F (1966)
Min Temperature 28 °F 27 °F -7 °F (1936)
Degree Days  
Heating Degree Days 24 27  
Month to date heating degree days 1221 1007  
Since 1 July heating degree days 7428 7377  
Cooling Degree Days 0 0  
Month to date cooling degree days 0 0  
Year to date cooling degree days 0 0  
Moisture  
Dew Point 30 °F    
Average Humidity 70    
Maximum Humidity 100    
Minimum Humidity 39    
Precipitation  
Precipitation 0.00 in 0.02 in 0.70 in (2014)
Month to date precipitation 0.99 0.40  
Year to date precipitation 1.65 1.03  
Snow  
Snow 0.00 in 0.20 in 5.00 in (1967)
Month to date snowfall 13.3 4.6  
Since 1 July snowfall 50.6 31.6  
Snow Depth 0.00 in    
Sea Level Pressure  
Sea Level Pressure 30.15 in    
Wind  
Wind Speed 8 mph (NW)    
Max Wind Speed 24 mph    
Max Gust Speed 29 mph    
Visibility 9 miles    
Events      
T = Trace of Precipitation, MM = Missing Value Source: NWS Daily Summary

Daily Weather History Graph

Daily Weather History Graph

Search for Another Location

Airport:

Trip Planner

Search our weather history database for the weather conditions in past years. The results will help you decide how hot, cold, wet, or windy it might be!

Date:

Astronomy

Mar. 30, 2013 Rise Set
Actual Time 6:48 AM MDT 7:34 PM MDT
Civil Twilight 6:16 AM MDT 8:05 PM MDT
Nautical Twilight 5:39 AM MDT 8:43 PM MDT
Astronomical Twilight 4:59 AM MDT 9:23 PM MDT
Moon No Moon Rise 8:27 AM MDT (3/30)
Length of Visible Light 13h 49m
Length of Day
12h 46m
Waning Gibbous, 86% of the Moon is Illuminated
Mar 30
Waning Gibbous
Apr 2
Last Quarter
Apr 10
New
Apr 18
First Quarter
Apr 25
Full

Hourly Weather History & Observations

Time (MDT) Temp. Windchill Dew Point Humidity Pressure Visibility Wind Dir Wind Speed Gust Speed Precip Events Conditions
12:53 AM 33.1 °F 26.9 °F 32.0 °F 96% 30.12 in 9.0 mi NNW 6.9 mph - N/A   Clear
1:53 AM 34.0 °F 29.8 °F 32.0 °F 92% 30.12 in 10.0 mi NW 4.6 mph - N/A   Overcast
2:53 AM 30.9 °F 25.2 °F 30.0 °F 96% 30.12 in 5.0 mi West 5.8 mph - N/A   Scattered Clouds
3:53 AM 30.9 °F 23.5 °F 30.0 °F 96% 30.12 in 9.0 mi NNW 8.1 mph - N/A   Clear
4:53 AM 28.9 °F 21.9 °F 27.0 °F 92% 30.12 in 9.0 mi WNW 6.9 mph - N/A   Clear
5:53 AM 28.9 °F 22.8 °F 27.0 °F 92% 30.12 in 8.0 mi WNW 5.8 mph - N/A   Clear
6:53 AM 30.0 °F 22.4 °F 28.9 °F 96% 30.12 in 7.0 mi NW 8.1 mph - N/A   Clear
7:53 AM 30.9 °F - 28.9 °F 92% 30.13 in 5.0 mi Calm Calm - N/A   Clear
8:53 AM 33.1 °F 30.0 °F 30.9 °F 92% 30.14 in 5.0 mi WSW 3.5 mph - N/A   Clear
9:53 AM 36.0 °F 32.1 °F 33.1 °F 89% 30.14 in 7.0 mi West 4.6 mph - N/A   Mostly Cloudy
10:53 AM 42.1 °F 35.2 °F 35.1 °F 76% 30.19 in 10.0 mi WNW 12.7 mph - N/A   Clear
11:31 AM 42.8 °F 34.5 °F 33.8 °F 70% 30.13 in 10.0 mi North 18.4 mph - N/A   Mostly Cloudy
11:53 AM 41.0 °F 32.8 °F 33.1 °F 73% 30.18 in 10.0 mi North 16.1 mph - N/A   Overcast
12:53 PM 43.0 °F - 35.1 °F 74% 30.18 in 10.0 mi Calm Calm - N/A   Overcast
1:53 PM 50.0 °F - 37.0 °F 61% 30.17 in 10.0 mi West 11.5 mph - N/A   Clear
2:53 PM 53.1 °F - 34.0 °F 48% 30.16 in 10.0 mi NNW 17.3 mph 21.9 mph N/A   Mostly Cloudy
3:53 PM 52.0 °F - 35.1 °F 53% 30.17 in 10.0 mi NNW 18.4 mph 25.3 mph N/A   Partly Cloudy
4:53 PM 50.0 °F - 27.0 °F 41% 30.17 in 10.0 mi NNW 20.7 mph 27.6 mph N/A   Clear
5:53 PM 46.9 °F - 27.0 °F 46% 30.17 in 10.0 mi North 13.8 mph - N/A   Clear
6:53 PM 43.0 °F 38.8 °F 30.9 °F 62% 30.17 in 10.0 mi North 6.9 mph - N/A   Clear
7:53 PM 39.0 °F 33.4 °F 30.9 °F 73% 30.17 in 10.0 mi NNE 8.1 mph - N/A   Clear
8:53 PM 35.1 °F 29.3 °F 28.0 °F 76% 30.18 in 10.0 mi NNE 6.9 mph - N/A   Clear
9:53 PM 35.1 °F 32.2 °F 26.1 °F 70% 30.18 in 10.0 mi Variable 3.5 mph - N/A   Clear
10:53 PM 34.0 °F - 25.0 °F 70% 30.15 in 10.0 mi Calm Calm - N/A   Mostly Cloudy
11:53 PM 32.0 °F 26.4 °F 23.0 °F 69% 30.14 in 10.0 mi South 5.8 mph - N/A   Clear